Location: Alsip
(41.6689°N, 87.7387°W)
Time: 14:12:22
(UTC+00:00)

Cosmos 1023 Rocket - Pass Details

Date: 14 July 2020
Orbit: 736 x 773 km, 74.1° (Epoch: 04 August)

Event Time Altitude Azimuth Distance (km) Brightness Sun altitude
Exits shadow 07:47:53 51° 218° (SW) 960 4.6 -21.7°
Maximum altitude 07:49:12 76° 290° (WNW) 792 4.4 -21.6°
Drops below altitude 10° 07:54:28 10° 17° (NNE) 2,319 8.1 -21.1°
Sets 07:56:53 0° 19° (NNE) 3,253 9.2 -20.9°
